BM1CKC-10 Weather Reports


time (UTC)temp
C
wind
direction
speed
KPH
gust
KPH
rain 1hr
cm
rain 24hr
cm
rain mn
cm
humidity
%
barometer
mb
20260508094958 27 0.0 0.0 0.00 0.00 0.00 61 1009.4
20260508092958 27 0.0 0.0 0.00 0.00 0.00 62 1009.3
20260508090958 27 0.0 0.0 0.00 0.00 0.00 62 1009.1
20260508084958 27 0.0 0.0 0.00 0.00 0.00 61 1008.9
20260508082958 27 0.0 0.0 0.00 0.00 0.00 61 1008.7
20260508080958 28 0.0 0.0 0.00 0.00 0.00 59 1008.3
20260508074958 27 0.0 0.0 0.00 0.00 0.00 60 1008.1
20260508072959 28 0.0 0.0 0.00 0.00 0.00 59 1008.1
20260508071013 27 0.0 0.0 0.00 0.00 0.00 61 1008.0
20260508064958 27 0.0 0.0 0.00 0.00 0.00 61 1008.0
20260508062959 28 0.0 0.0 0.00 0.00 0.00 60 1008.0
20260508060959 27 0.0 0.0 0.00 0.00 0.00 60 1007.9
20260508054958 28 0.0 0.0 0.00 0.00 0.00 60 1008.1
20260508052958 28 0.0 0.0 0.00 0.00 0.00 60 1008.1
20260508050958 28 0.0 0.0 0.00 0.00 0.00 60 1008.2
20260508044958 28 0.0 0.0 0.00 0.00 0.00 60 1008.3
20260508042958 28 0.0 0.0 0.00 0.00 0.00 60 1008.5
20260508040958 28 0.0 0.0 0.00 0.00 0.00 61 1008.8
20260508034958 27 0.0 0.0 0.00 0.00 0.00 62 1008.8
20260508032958 27 0.0 0.0 0.00 0.00 0.00 61 1008.9
20260508030959 27 0.0 0.0 0.00 0.00 0.00 62 1009.1
20260508024959 27 0.0 0.0 0.00 0.00 0.00 62 1009.0
20260508022958 27 0.0 0.0 0.00 0.00 0.00 62 1009.0
20260508020958 27 0.0 0.0 0.00 0.00 0.00 62 1008.9
20260508014958 27 0.0 0.0 0.00 0.00 0.00 62 1008.9
20260508012958 27 0.0 0.0 0.00 0.00 0.00 62 1008.6
20260508011005 28 0.0 0.0 0.00 0.00 0.00 61 1008.5
20260508004958 28 0.0 0.0 0.00 0.00 0.00 60 1008.4
20260508002958 27 0.0 0.0 0.00 0.00 0.00 62 1008.2
20260508000958 28 0.0 0.0 0.00 0.00 0.00 60 1007.9
20260507234959 28 0.0 0.0 0.00 0.00 0.00 60 1007.7
20260507232959 26 0.0 0.0 0.00 0.00 0.00 60 1007.7
20260507230958 25 0.0 0.0 0.00 0.00 0.00 64 1007.6
20260507224959 25 0.0 0.0 0.00 0.00 0.00 59 1007.3
20260507222958 25 0.0 0.0 0.00 0.00 0.00 61 1007.1
20260507220959 25 0.0 0.0 0.00 0.00 0.00 61 1006.8
20260507212959 25 0.0 0.0 0.00 0.00 0.00 59 1006.4
20260507210959 25 0.0 0.0 0.00 0.00 0.00 60 1006.4
20260507204958 25 0.0 0.0 0.00 0.00 0.00 59 1006.2
20260507202958 25 0.0 0.0 0.00 0.00 0.00 60 1005.9
20260507200959 25 0.0 0.0 0.00 0.00 0.00 61 1005.6
20260507194959 25 0.0 0.0 0.00 0.00 0.00 60 1005.4
20260507192959 25 0.0 0.0 0.00 0.00 0.00 60 1005.2
20260507190959 25 0.0 0.0 0.00 0.00 0.00 59 1005.2
20260507184958 26 0.0 0.0 0.00 0.00 0.00 59 1005.2
20260507182958 25 0.0 0.0 0.00 0.00 0.00 58 1005.1
20260507180958 25 0.0 0.0 0.00 0.00 0.00 59 1005.0
20260507174958 25 0.0 0.0 0.00 0.00 0.00 59 1004.9
20260507172959 25 0.0 0.0 0.00 0.00 0.00 59 1004.7
20260507170959 25 0.0 0.0 0.00 0.00 0.00 61 1004.9
20260507164959 25 0.0 0.0 0.00 0.00 0.00 60 1005.0
20260507162959 25 0.0 0.0 0.00 0.00 0.00 58 1005.2
20260507160959 25 0.0 0.0 0.00 0.00 0.00 58 1005.4
20260507154959 25 0.0 0.0 0.00 0.00 0.00 58 1005.7
20260507152959 25 0.0 0.0 0.00 0.00 0.00 59 1005.8
20260507150959 25 0.0 0.0 0.00 0.00 0.00 59 1005.9
20260507145001 25 0.0 0.0 0.00 0.00 0.00 57 1006.0
20260507142959 26 0.0 0.0 0.00 0.00 0.00 54 1006.1
20260507140959 28 0.0 0.0 0.00 0.00 0.00 64 1006.1
20260507134959 28 0.0 0.0 0.00 0.00 0.00 65 1006.2
20260507132959 28 0.0 0.0 0.00 0.00 0.00 65 1006.2
20260507130958 28 0.0 0.0 0.00 0.00 0.00 65 1006.0
20260507124958 28 0.0 0.0 0.00 0.00 0.00 65 1005.9
20260507122959 28 0.0 0.0 0.00 0.00 0.00 65 1005.9
20260507120959 28 0.0 0.0 0.00 0.00 0.00 63 1005.7
20260507114959 28 0.0 0.0 0.00 0.00 0.00 62 1005.5
20260507112958 28 0.0 0.0 0.00 0.00 0.00 62 1005.3
20260507110959 28 0.0 0.0 0.00 0.00 0.00 62 1005.1
20260507104959 28 0.0 0.0 0.00 0.00 0.00 62 1004.9
20260507102958 28 0.0 0.0 0.00 0.00 0.00 64 1004.7
20260507100958 30 0.0 0.0 0.00 0.00 0.00 59 1004.7